Location: Krakow
(50.0830°N, 19.9170°E)
Time: 13:18:47
(UTC+01:00)

Vanguard 2 - Pass Details

Date: 19 December 2023
Orbit: 553 x 2919 km, 32.9° (Epoch: 24 February)

Event Time Altitude Azimuth Distance (km) Brightness Sun altitude
Rises 17:49:33 0° 241° (WSW) 5,626 13.3 -19.6°
Reaches altitude 10° 17:53:10 10° 234° (SW) 4,902 12.6 -20.2°
Maximum altitude 18:06:37 41° 172° (S) 3,645 10.9 -22.3°
Enters shadow 18:18:30 19° 118° (ESE) 4,992 11.2 -24.2°
